Terminal Aerodrome Forecast
Issued by NWS Portland, ME

Home | Current Version | Previous Version | Text Only | Print | Product List | Glossary On
Versions: 1 2 3 4 5 6 7 8 9 10 11 12 13 14 15
000
FTUS41 KGYX 211121
TAFPWM
TAF
KPWM 211121Z 2112/2212 04004KT P6SM SCT100 OVC250
     FM211500 12005KT P6SM BKN100
     FM211900 18007KT P6SM BKN100=

USA.gov is the U.S. government's official web portal to all federal, state and local government web resources and services.